ATLAS 5 CENTAUR DEB, 44687

Orbit data source: Space-Track

ATLAS 5 CENTAUR DEB, 44687 is space debris in HEO originally from a launch on Wed, 17 Oct 2018 UTC launched from the Air Force Eastern Test Range (AFETR). Debris objects in space refer to the collection of defunct objects orbiting the Earth. Examples of debris include non-operational satellites, rocket bodies, and fragments generated from explosions, collisions, or faulty payload assembly.

Loading next visibility...
Identifier
44687, 2018-079AZ
Orbit
HEO
Country
Flag of USUS
Related business
Flag of USUnited Launch Alliance/Lockheed Martin (US)
Manufacturer
ULA Decatur
Mission
Spacecraft
Bus & Motor
Unknown
Mass
Unknown
Launch date (UTC)
2018-10-17 (7 years ago)
Launch vehicle
Unknown
Launch site
Air Force Eastern Test Range (AFETR)
Object type
Payload
Rocket body
Debris
Shape & HBR
Unknown shape, 1.1 m
Radar Cross Section
RCS unknown

Expand to show TLE details & history
Last TLE update: 2 days ago

TLE from 2 days ago
0 ATLAS 5 CENTAUR DEB
1 44687U 18079AZ  25303.05501499 -.00000059  00000-0  00000-0 0  9995
2 44687  12.9889  57.6807 4618953 272.1006  37.6911  1.82179069 41965
Epoch: 2025-10-30T01:19Z
TLE epoch observation values (Epoch: 2025-10-30T01:19:13.295Z)
Latitude
0.00002°
Longitude
-0.80103°
Altitude
15,518.843 km
Speed
4.726 km/s
True Right ascension
03h 50m 29s
True Declination
0° 00' 00"
Sunlit
Object was in daylight at epoch
Visualization orbit readout
Latitude
Unknown
Longitude
Unknown
Altitude
Unknown
Speed
Unknown
Apparent Right ascension
Unknown
Apparent Declination
Unknown
Sunlit
N/A
Visualization observer readout
Local Sidereal Time
00:33:45
Azimuth
Unknown
Elevation
Unknown
Doppler factor
Unknown
Orbital elements
Apogee altitude
35,023.513 km
Perigee altitude
8,861.274 km
Semi-major axis
28,320.53 km
Eccentricity
0.4619
Inclination
12.9889°
RAAN
57.6807°
Arg. of periapsis
272.1006°
True anomaly
88.06843°
Mean anomaly
37.6911°
Eccentric anomaly
60.79055°
Mean motion
0.4554 °/min
Orbital period
790.52 mins
BSTAR
0
Loading maneuver chart data...
Computing Atmospheric mass density...

Documentation

Showing up to 5 results
|